Time,TemperatureF,DewpointF,PressureIn,WindDirection,WindDirectionDegrees,WindSpeedMPH,WindSpeedGustMPH,Humidity,HourlyPrecipIn,Conditions,Clouds,dailyrainin,SoftwareType,DateUTC
2013-04-25 00:01:00,42.3,26.8,29.99,WNW,293,17.0,19.0,54,0.00,,,0.00,meteohub,2013-04-25 05:01:00,
2013-04-25 00:06:00,42.1,27.1,29.99,SW,225,15.0,18.0,55,0.00,,,0.00,meteohub,2013-04-25 05:06:00,
2013-04-25 00:11:00,41.9,27.9,29.97,West,270,23.0,23.0,57,0.00,,,0.00,meteohub,2013-04-25 05:11:00,
2013-04-25 00:16:00,41.7,27.7,29.97,SW,225,18.0,23.0,57,0.00,,,0.00,meteohub,2013-04-25 05:16:00,
2013-04-25 00:21:00,41.7,27.7,29.97,SW,225,18.0,23.0,57,0.00,,,0.00,meteohub,2013-04-25 05:21:00,
2013-04-25 00:27:00,41.5,27.9,29.98,West,270,23.0,23.0,58,0.00,,,0.00,meteohub,2013-04-25 05:27:00,
2013-04-25 00:32:00,41.5,27.9,29.97,NW,315,13.0,23.0,58,0.00,,,0.00,meteohub,2013-04-25 05:32:00,
2013-04-25 00:37:00,41.5,27.9,29.97,West,270,14.0,23.0,58,0.00,,,0.00,meteohub,2013-04-25 05:37:00,
2013-04-25 00:42:00,41.5,27.9,29.97,SW,225,16.0,23.0,58,0.00,,,0.00,meteohub,2013-04-25 05:42:00,
2013-04-25 00:47:00,41.5,27.9,29.97,NW,315,18.0,22.0,58,0.00,,,0.00,meteohub,2013-04-25 05:47:00,
2013-04-25 00:52:00,41.7,27.7,29.97,SW,225,17.0,22.0,57,0.00,,,0.00,meteohub,2013-04-25 05:52:00,
2013-04-25 00:57:00,41.5,27.5,29.97,West,270,15.0,21.0,57,0.00,,,0.00,meteohub,2013-04-25 05:57:00,
2013-04-25 01:02:00,41.5,27.5,29.97,West,270,18.0,21.0,57,0.00,,,0.00,meteohub,2013-04-25 06:02:00,
2013-04-25 01:07:00,41.5,27.5,29.97,West,270,18.0,21.0,57,0.00,,,0.00,meteohub,2013-04-25 06:07:00,
2013-04-25 01:12:00,41.4,27.3,29.97,West,270,21.0,21.0,57,0.00,,,0.00,meteohub,2013-04-25 06:12:00,
2013-04-25 01:17:00,41.4,27.3,29.97,West,270,14.0,19.0,57,0.00,,,0.00,meteohub,2013-04-25 06:17:00,
2013-04-25 01:22:00,41.2,27.5,29.97,West,270,18.0,23.0,58,0.00,,,0.00,meteohub,2013-04-25 06:22:00,
2013-04-25 01:27:00,41.0,27.9,29.97,West,270,14.0,23.0,59,0.00,,,0.00,meteohub,2013-04-25 06:27:00,
2013-04-25 01:32:00,40.8,28.0,29.97,NW,315,11.0,21.0,60,0.00,,,0.00,meteohub,2013-04-25 06:32:00,
2013-04-25 01:37:00,40.3,27.9,29.97,SW,225,14.0,21.0,61,0.00,,,0.00,meteohub,2013-04-25 06:37:00,
2013-04-25 01:42:00,40.3,28.2,29.97,North,0,16.0,21.0,62,0.00,,,0.00,meteohub,2013-04-25 06:42:00,
2013-04-25 01:47:00,40.1,28.6,29.97,NW,315,22.0,22.0,63,0.00,,,0.00,meteohub,2013-04-25 06:47:00,
2013-04-25 01:52:00,39.9,28.8,29.97,West,270,13.0,22.0,64,0.00,,,0.00,meteohub,2013-04-25 06:52:00,
2013-04-25 01:58:00,39.9,28.8,29.97,NW,315,13.0,22.0,64,0.00,,,0.00,meteohub,2013-04-25 06:58:00,
2013-04-25 02:03:00,39.7,28.6,29.97,West,270,11.0,22.0,64,0.00,,,0.00,meteohub,2013-04-25 07:03:00,
2013-04-25 02:08:00,39.7,28.9,29.96,North,0,18.0,19.0,65,0.00,,,0.00,meteohub,2013-04-25 07:08:00,
2013-04-25 02:13:00,39.6,28.8,29.97,West,270,13.0,19.0,65,0.00,,,0.00,meteohub,2013-04-25 07:13:00,
2013-04-25 02:18:00,39.6,29.1,29.97,NW,315,13.0,18.0,66,0.00,,,0.00,meteohub,2013-04-25 07:18:00,
2013-04-25 02:23:00,39.4,29.3,29.97,West,270,11.0,18.0,67,0.00,,,0.00,meteohub,2013-04-25 07:23:00,
2013-04-25 02:28:00,39.4,29.7,29.96,West,270,15.0,15.0,68,0.00,,,0.00,meteohub,2013-04-25 07:28:00,
2013-04-25 02:33:00,39.4,29.7,29.96,West,270,15.0,15.0,68,0.00,,,0.00,meteohub,2013-04-25 07:33:00,
2013-04-25 02:38:00,39.2,29.5,29.97,West,270,11.0,17.0,68,0.00,,,0.00,meteohub,2013-04-25 07:38:00,
2013-04-25 02:43:00,39.2,29.5,29.96,West,270,14.0,17.0,68,0.00,,,0.00,meteohub,2013-04-25 07:43:00,
2013-04-25 02:48:00,39.0,29.3,29.96,West,270,12.0,17.0,68,0.00,,,0.00,meteohub,2013-04-25 07:48:00,
2013-04-25 02:53:00,39.0,29.3,29.97,West,270,14.0,16.0,68,0.00,,,0.00,meteohub,2013-04-25 07:53:00,
2013-04-25 02:58:00,39.0,28.9,29.97,WNW,293,14.0,16.0,67,0.00,,,0.00,meteohub,2013-04-25 07:58:00,
2013-04-25 03:03:00,39.0,28.9,29.97,NW,315,16.0,16.0,67,0.00,,,0.00,meteohub,2013-04-25 08:03:00,
2013-04-25 03:08:00,39.0,28.2,29.97,NW,315,11.0,16.0,65,0.00,,,0.00,meteohub,2013-04-25 08:08:00,
2013-04-25 03:13:00,38.8,28.0,29.97,SW,225,16.0,16.0,65,0.00,,,0.00,meteohub,2013-04-25 08:13:00,
2013-04-25 03:18:00,38.7,27.9,29.97,West,270,12.0,16.0,65,0.00,,,0.00,meteohub,2013-04-25 08:18:00,
2013-04-25 03:23:00,38.5,27.7,29.97,WSW,248,15.0,17.0,65,0.00,,,0.00,meteohub,2013-04-25 08:23:00,
2013-04-25 03:29:00,38.3,27.5,29.97,West,270,14.0,17.0,65,0.00,,,0.00,meteohub,2013-04-25 08:29:00,
2013-04-25 03:34:00,38.3,27.5,29.98,West,270,14.0,17.0,65,0.00,,,0.00,meteohub,2013-04-25 08:34:00,
2013-04-25 03:39:00,38.1,27.3,29.98,NW,315,11.0,15.0,65,0.00,,,0.00,meteohub,2013-04-25 08:39:00,
2013-04-25 03:44:00,37.9,27.1,29.98,WNW,293,13.0,14.0,65,0.00,,,0.00,meteohub,2013-04-25 08:44:00,
2013-04-25 03:49:00,38.1,27.0,29.98,SW,225,14.0,15.0,64,0.00,,,0.00,meteohub,2013-04-25 08:49:00,
2013-04-25 03:54:00,37.9,26.4,29.99,West,270,11.0,15.0,63,0.00,,,0.00,meteohub,2013-04-25 08:54:00,
2013-04-25 03:59:00,37.6,26.1,29.99,West,270,11.0,17.0,63,0.00,,,0.00,meteohub,2013-04-25 08:59:00,
2013-04-25 04:04:00,37.6,26.1,29.99,NW,315,12.0,17.0,63,0.00,,,0.00,meteohub,2013-04-25 09:04:00,
2013-04-25 04:09:00,37.4,25.9,29.99,NW,315,15.0,17.0,63,0.00,,,0.00,meteohub,2013-04-25 09:09:00,
2013-04-25 04:14:00,37.4,25.9,29.99,NW,315,14.0,17.0,63,0.00,,,0.00,meteohub,2013-04-25 09:14:00,
2013-04-25 04:19:00,37.2,25.7,29.99,NW,315,15.0,15.0,63,0.00,,,0.00,meteohub,2013-04-25 09:19:00,
2013-04-25 04:24:00,37.2,25.7,30.00,NW,315,13.0,17.0,63,0.00,,,0.00,meteohub,2013-04-25 09:24:00,
2013-04-25 04:29:00,37.2,25.7,29.99,West,270,11.0,17.0,63,0.00,,,0.00,meteohub,2013-04-25 09:29:00,
2013-04-25 04:34:00,37.0,25.7,30.00,West,270,15.0,17.0,63,0.00,,,0.00,meteohub,2013-04-25 09:34:00,
2013-04-25 04:39:00,37.0,25.7,30.00,West,270,12.0,17.0,63,0.00,,,0.00,meteohub,2013-04-25 09:39:00,
2013-04-25 04:44:00,36.9,25.9,30.00,West,270,13.0,17.0,64,0.00,,,0.00,meteohub,2013-04-25 09:44:00,
2013-04-25 04:49:00,36.9,25.9,30.01,NW,315,13.0,17.0,64,0.00,,,0.00,meteohub,2013-04-25 09:49:00,
2013-04-25 04:55:00,36.7,25.7,30.01,NW,315,13.0,15.0,64,0.00,,,0.00,meteohub,2013-04-25 09:55:00,
2013-04-25 05:00:00,36.7,25.7,30.01,West,270,11.0,15.0,64,0.00,,,0.00,meteohub,2013-04-25 10:00:00,
2013-04-25 05:05:00,36.7,26.1,30.01,West,270,13.0,16.0,65,0.00,,,0.00,meteohub,2013-04-25 10:05:00,
2013-04-25 05:10:00,36.7,26.1,30.01,West,270,15.0,16.0,65,0.00,,,0.00,meteohub,2013-04-25 10:10:00,
2013-04-25 05:15:00,36.7,26.1,30.01,West,270,14.0,16.0,65,0.00,,,0.00,meteohub,2013-04-25 10:15:00,
2013-04-25 05:20:00,36.7,26.1,30.02,West,270,14.0,15.0,65,0.00,,,0.00,meteohub,2013-04-25 10:20:00,
2013-04-25 05:25:00,36.5,25.9,30.01,NW,315,11.0,15.0,65,0.00,,,0.00,meteohub,2013-04-25 10:25:00,
2013-04-25 05:30:00,36.5,25.9,30.02,West,270,12.0,17.0,65,0.00,,,0.00,meteohub,2013-04-25 10:30:00,
2013-04-25 05:35:00,36.5,26.2,30.03,West,270,13.0,17.0,66,0.00,,,0.00,meteohub,2013-04-25 10:35:00,
2013-04-25 05:40:00,36.3,26.1,30.03,SW,225,11.0,17.0,66,0.00,,,0.00,meteohub,2013-04-25 10:40:00,
2013-04-25 05:45:00,36.3,26.4,30.03,NW,315,13.0,16.0,67,0.00,,,0.00,meteohub,2013-04-25 10:45:00,
2013-04-25 05:50:00,36.1,26.6,30.02,NW,315,13.0,16.0,68,0.00,,,0.00,meteohub,2013-04-25 10:50:00,
2013-04-25 05:55:00,36.1,26.6,30.03,NW,315,8.0,15.0,68,0.00,,,0.00,meteohub,2013-04-25 10:55:00,
2013-04-25 06:00:00,36.0,26.4,30.03,NE,45,11.0,15.0,68,0.00,,,0.00,meteohub,2013-04-25 11:00:00,
2013-04-25 06:05:00,36.0,26.8,30.04,West,270,12.0,13.0,69,0.00,,,0.00,meteohub,2013-04-25 11:05:00,
2013-04-25 06:10:00,35.8,27.0,30.04,West,270,9.0,14.0,70,0.00,,,0.00,meteohub,2013-04-25 11:10:00,
2013-04-25 06:15:00,35.6,27.1,30.04,West,270,13.0,14.0,71,0.00,,,0.00,meteohub,2013-04-25 11:15:00,
2013-04-25 06:20:00,35.2,27.1,30.04,NW,315,11.0,15.0,72,0.00,,,0.00,meteohub,2013-04-25 11:20:00,
2013-04-25 06:26:00,35.1,27.0,30.04,NW,315,10.0,15.0,72,0.00,,,0.00,meteohub,2013-04-25 11:26:00,
2013-04-25 06:31:00,35.1,27.0,30.05,West,270,11.0,13.0,72,0.00,,,0.00,meteohub,2013-04-25 11:31:00,
2013-04-25 06:36:00,35.2,27.1,30.05,West,270,11.0,13.0,72,0.00,,,0.00,meteohub,2013-04-25 11:36:00,
2013-04-25 06:41:00,35.2,27.5,30.04,West,270,17.0,17.0,73,0.00,,,0.00,meteohub,2013-04-25 11:41:00,
2013-04-25 06:46:00,35.2,27.5,30.05,SW,225,12.0,17.0,73,0.00,,,0.00,meteohub,2013-04-25 11:46:00,
2013-04-25 06:51:00,35.6,27.9,30.05,West,270,11.0,17.0,73,0.00,,,0.00,meteohub,2013-04-25 11:51:00,
2013-04-25 06:56:00,35.8,27.7,30.05,WNW,293,10.0,17.0,72,0.00,,,0.00,meteohub,2013-04-25 11:56:00,
2013-04-25 07:01:00,36.0,27.5,30.06,West,270,15.0,15.0,71,0.00,,,0.00,meteohub,2013-04-25 12:01:00,
2013-04-25 07:06:00,36.0,27.5,30.06,West,270,8.0,15.0,71,0.00,,,0.00,meteohub,2013-04-25 12:06:00,
2013-04-25 07:11:00,36.1,27.0,30.06,NW,315,15.0,15.0,69,0.00,,,0.00,meteohub,2013-04-25 12:11:00,
2013-04-25 07:16:00,36.1,27.0,30.06,NW,315,11.0,16.0,69,0.00,,,0.00,meteohub,2013-04-25 12:16:00,
2013-04-25 07:21:00,36.3,27.1,30.07,NW,315,18.0,18.0,69,0.00,,,0.00,meteohub,2013-04-25 12:21:00,
2013-04-25 07:26:00,36.1,27.0,30.07,East,90,11.0,18.0,69,0.00,,,0.00,meteohub,2013-04-25 12:26:00,
2013-04-25 07:31:00,36.3,27.1,30.08,West,270,8.0,18.0,69,0.00,,,0.00,meteohub,2013-04-25 12:31:00,
2013-04-25 07:36:00,36.3,27.5,30.08,NW,315,9.0,18.0,70,0.00,,,0.00,meteohub,2013-04-25 12:36:00,
2013-04-25 07:41:00,36.3,27.9,30.08,West,270,13.0,13.0,71,0.00,,,0.00,meteohub,2013-04-25 12:41:00,
2013-04-25 07:47:00,36.1,27.7,30.08,West,270,15.0,15.0,71,0.00,,,0.00,meteohub,2013-04-25 12:47:00,
2013-04-25 07:52:00,36.0,27.9,30.09,West,270,12.0,15.0,72,0.00,,,0.00,meteohub,2013-04-25 12:52:00,
2013-04-25 07:57:00,36.0,27.9,30.09,West,270,10.0,15.0,72,0.00,,,0.00,meteohub,2013-04-25 12:57:00,
2013-04-25 08:02:00,35.8,27.7,30.09,WNW,293,15.0,15.0,72,0.00,,,0.00,meteohub,2013-04-25 13:02:00,
2013-04-25 08:07:00,35.8,27.3,30.09,West,270,19.0,19.0,71,0.00,,,0.00,meteohub,2013-04-25 13:07:00,
2013-04-25 08:12:00,35.8,27.3,30.09,West,270,19.0,19.0,71,0.00,,,0.00,meteohub,2013-04-25 13:12:00,
2013-04-25 08:17:00,35.8,27.3,30.10,NW,315,10.0,19.0,71,0.00,,,0.00,meteohub,2013-04-25 13:17:00,
2013-04-25 08:22:00,35.8,27.3,30.10,NW,315,10.0,19.0,71,0.00,,,0.00,meteohub,2013-04-25 13:22:00,
2013-04-25 08:27:00,36.3,27.1,30.11,NW,315,10.0,19.0,69,0.00,,,0.00,meteohub,2013-04-25 13:27:00,
2013-04-25 08:32:00,36.3,26.8,30.11,West,270,10.0,16.0,68,0.00,,,0.00,meteohub,2013-04-25 13:32:00,
2013-04-25 08:37:00,36.5,26.6,30.11,West,270,7.0,17.0,67,0.00,,,0.00,meteohub,2013-04-25 13:37:00,
2013-04-25 08:42:00,36.5,26.2,30.11,West,270,9.0,17.0,66,0.00,,,0.00,meteohub,2013-04-25 13:42:00,
2013-04-25 08:47:00,36.5,26.2,30.11,West,270,15.0,17.0,66,0.00,,,0.00,meteohub,2013-04-25 13:47:00,
2013-04-25 08:52:00,36.9,26.6,30.11,NW,315,9.0,16.0,66,0.00,,,0.00,meteohub,2013-04-25 13:52:00,
2013-04-25 08:57:00,37.2,26.6,30.11,NW,315,11.0,16.0,65,0.00,,,0.00,meteohub,2013-04-25 13:57:00,
2013-04-25 09:02:00,37.4,26.4,30.12,NW,315,13.0,19.0,64,0.00,,,0.00,meteohub,2013-04-25 14:02:00,
2013-04-25 09:07:00,37.4,25.9,30.12,WNW,293,15.0,19.0,63,0.00,,,0.00,meteohub,2013-04-25 14:07:00,
2013-04-25 09:12:00,37.4,26.4,30.12,NW,315,12.0,19.0,64,0.00,,,0.00,meteohub,2013-04-25 14:12:00,
2013-04-25 09:17:00,37.6,26.6,30.12,NW,315,13.0,19.0,64,0.00,,,0.00,meteohub,2013-04-25 14:17:00,
2013-04-25 09:22:00,37.6,26.6,30.12,NW,315,13.0,15.0,64,0.00,,,0.00,meteohub,2013-04-25 14:22:00,
2013-04-25 09:27:00,37.0,26.1,30.13,West,270,11.0,15.0,64,0.00,,,0.00,meteohub,2013-04-25 14:27:00,
2013-04-25 09:32:00,37.2,26.2,30.13,West,270,14.0,15.0,64,0.00,,,0.00,meteohub,2013-04-25 14:32:00,
2013-04-25 09:37:00,37.2,26.2,30.13,WSW,248,11.0,15.0,64,0.00,,,0.00,meteohub,2013-04-25 14:37:00,
2013-04-25 09:42:00,37.6,26.6,30.13,NW,315,15.0,15.0,64,0.00,,,0.00,meteohub,2013-04-25 14:42:00,
2013-04-25 09:47:00,37.8,26.2,30.14,SE,135,8.0,17.0,63,0.00,,,0.00,meteohub,2013-04-25 14:47:00,
2013-04-25 09:52:00,38.3,26.4,30.14,West,270,14.0,17.0,62,0.00,,,0.00,meteohub,2013-04-25 14:52:00,
2013-04-25 09:57:00,38.5,26.6,30.14,NW,315,10.0,17.0,62,0.00,,,0.00,meteohub,2013-04-25 14:57:00,
2013-04-25 10:02:00,38.3,26.1,30.14,SW,225,8.0,15.0,61,0.00,,,0.00,meteohub,2013-04-25 15:02:00,
2013-04-25 10:07:00,37.9,25.7,30.15,NW,315,5.0,15.0,61,0.00,,,0.00,meteohub,2013-04-25 15:07:00,
2013-04-25 10:12:00,37.8,25.9,30.15,NW,315,12.0,14.0,62,0.00,,,0.00,meteohub,2013-04-25 15:12:00,
2013-04-25 10:17:00,38.7,27.5,30.16,NE,45,9.0,15.0,64,0.00,,,0.00,meteohub,2013-04-25 15:17:00,
2013-04-25 10:22:00,40.1,27.0,30.16,West,270,14.0,15.0,59,0.00,,,0.00,meteohub,2013-04-25 15:22:00,
2013-04-25 10:27:00,40.8,26.8,30.16,SE,135,9.0,15.0,57,0.00,,,0.00,meteohub,2013-04-25 15:27:00,
2013-04-25 10:32:00,40.5,26.8,30.16,NE,45,11.0,16.0,58,0.00,,,0.00,meteohub,2013-04-25 15:32:00,
2013-04-25 10:37:00,40.6,25.3,30.16,West,270,11.0,16.0,54,0.00,,,0.00,meteohub,2013-04-25 15:37:00,
2013-04-25 10:42:00,40.6,25.3,30.16,NE,45,5.0,16.0,54,0.00,,,0.00,meteohub,2013-04-25 15:42:00,
2013-04-25 10:47:00,41.5,24.8,30.17,NW,315,15.0,15.0,51,0.00,,,0.00,meteohub,2013-04-25 15:47:00,
2013-04-25 10:52:00,41.5,24.3,30.17,NE,45,9.0,17.0,50,0.00,,,0.00,meteohub,2013-04-25 15:52:00,
2013-04-25 10:57:00,41.9,25.2,30.17,West,270,11.0,17.0,51,0.00,,,0.00,meteohub,2013-04-25 15:57:00,
2013-04-25 11:02:00,41.9,25.2,30.17,NW,315,15.0,17.0,51,0.00,,,0.00,meteohub,2013-04-25 16:02:00,
2013-04-25 11:07:00,42.1,24.8,30.17,West,270,11.0,15.0,50,0.00,,,0.00,meteohub,2013-04-25 16:07:00,
2013-04-25 11:12:00,42.6,24.8,30.17,NW,315,6.0,15.0,49,0.00,,,0.00,meteohub,2013-04-25 16:12:00,
2013-04-25 11:17:00,43.0,24.1,30.17,West,270,12.0,15.0,47,0.00,,,0.00,meteohub,2013-04-25 16:17:00,
2013-04-25 11:22:00,42.6,23.7,30.17,South,180,6.0,13.0,47,0.00,,,0.00,meteohub,2013-04-25 16:22:00,
2013-04-25 11:27:00,42.6,23.4,30.18,NE,45,6.0,13.0,46,0.00,,,0.00,meteohub,2013-04-25 16:27:00,
2013-04-25 11:32:00,44.4,23.9,30.17,NW,315,11.0,12.0,44,0.00,,,0.00,meteohub,2013-04-25 16:32:00,
2013-04-25 11:37:00,44.1,22.5,30.18,ENE,68,7.0,15.0,42,0.00,,,0.00,meteohub,2013-04-25 16:37:00,
2013-04-25 11:42:00,43.0,22.6,30.18,West,270,16.0,17.0,44,0.00,,,0.00,meteohub,2013-04-25 16:42:00,
2013-04-25 11:47:00,43.3,23.4,30.18,SW,225,11.0,17.0,45,0.00,,,0.00,meteohub,2013-04-25 16:47:00,
2013-04-25 11:52:00,43.7,23.7,30.18,North,0,10.0,17.0,45,0.00,,,0.00,meteohub,2013-04-25 16:52:00,
2013-04-25 11:57:00,43.7,23.7,30.19,WNW,293,13.0,16.0,45,0.00,,,0.00,meteohub,2013-04-25 16:57:00,
2013-04-25 12:02:00,42.6,23.7,30.18,West,270,11.0,15.0,47,0.00,,,0.00,meteohub,2013-04-25 17:02:00,
2013-04-25 12:07:00,42.6,23.7,30.18,NW,315,13.0,15.0,47,0.00,,,0.00,meteohub,2013-04-25 17:07:00,
2013-04-25 12:12:00,42.6,22.3,30.19,NW,315,6.0,15.0,44,0.00,,,0.00,meteohub,2013-04-25 17:12:00,
2013-04-25 12:17:00,42.8,23.0,30.19,NW,315,6.0,15.0,45,0.00,,,0.00,meteohub,2013-04-25 17:17:00,
2013-04-25 12:22:00,44.1,24.1,30.18,NE,45,10.0,15.0,45,0.00,,,0.00,meteohub,2013-04-25 17:22:00,
2013-04-25 12:27:00,44.8,23.7,30.19,SW,225,4.0,15.0,43,0.00,,,0.00,meteohub,2013-04-25 17:27:00,
2013-04-25 12:32:00,44.4,22.8,30.19,West,270,8.0,11.0,42,0.00,,,0.00,meteohub,2013-04-25 17:32:00,
2013-04-25 12:37:00,43.9,22.8,30.19,West,270,10.0,11.0,43,0.00,,,0.00,meteohub,2013-04-25 17:37:00,
2013-04-25 12:42:00,43.7,22.6,30.19,West,270,17.0,17.0,43,0.00,,,0.00,meteohub,2013-04-25 17:42:00,
2013-04-25 12:47:00,44.2,22.1,30.19,West,270,11.0,17.0,41,0.00,,,0.00,meteohub,2013-04-25 17:47:00,
2013-04-25 12:52:00,45.3,21.7,30.19,West,270,13.0,17.0,39,0.00,,,0.00,meteohub,2013-04-25 17:52:00,
2013-04-25 12:57:00,45.3,22.5,30.19,North,0,8.0,17.0,40,0.00,,,0.00,meteohub,2013-04-25 17:57:00,
2013-04-25 13:02:00,44.6,21.7,30.20,West,270,6.0,15.0,40,0.00,,,0.00,meteohub,2013-04-25 18:02:00,
2013-04-25 13:07:00,45.0,22.6,30.19,West,270,12.0,15.0,41,0.00,,,0.00,meteohub,2013-04-25 18:07:00,
2013-04-25 13:12:00,45.7,23.4,30.19,North,0,8.0,15.0,41,0.00,,,0.00,meteohub,2013-04-25 18:12:00,
2013-04-25 13:17:00,45.7,22.1,30.19,North,0,12.0,16.0,39,0.00,,,0.00,meteohub,2013-04-25 18:17:00,
2013-04-25 13:22:00,45.0,22.1,30.20,West,270,11.0,16.0,40,0.00,,,0.00,meteohub,2013-04-25 18:22:00,
2013-04-25 13:27:00,45.7,23.4,30.20,WNW,293,11.0,14.0,41,0.00,,,0.00,meteohub,2013-04-25 18:27:00,
2013-04-25 13:32:00,46.9,22.6,30.20,West,270,17.0,17.0,38,0.00,,,0.00,meteohub,2013-04-25 18:32:00,
2013-04-25 13:37:00,46.8,22.5,30.20,West,270,15.0,17.0,38,0.00,,,0.00,meteohub,2013-04-25 18:37:00,
2013-04-25 13:42:00,46.9,21.4,30.21,West,270,13.0,18.0,36,0.00,,,0.00,meteohub,2013-04-25 18:42:00,
2013-04-25 13:47:00,47.5,24.4,30.21,NE,45,11.0,18.0,40,0.00,,,0.00,meteohub,2013-04-25 18:47:00,
2013-04-25 13:52:00,46.6,23.0,30.21,West,270,8.0,18.0,39,0.00,,,0.00,meteohub,2013-04-25 18:52:00,
2013-04-25 13:57:00,46.9,22.1,30.21,SW,225,11.0,16.0,37,0.00,,,0.00,meteohub,2013-04-25 18:57:00,
2013-04-25 14:02:00,47.5,22.5,30.20,NW,315,15.0,15.0,37,0.00,,,0.00,meteohub,2013-04-25 19:02:00,
2013-04-25 14:07:00,47.1,20.8,30.21,West,270,11.0,17.0,35,0.00,,,0.00,meteohub,2013-04-25 19:07:00,
2013-04-25 14:12:00,47.8,23.5,30.22,NW,315,11.0,17.0,38,0.00,,,0.00,meteohub,2013-04-25 19:12:00,
2013-04-25 14:17:00,47.5,21.9,30.21,NNE,23,13.0,17.0,36,0.00,,,0.00,meteohub,2013-04-25 19:17:00,
2013-04-25 14:22:00,47.8,22.1,30.21,NE,45,11.0,13.0,36,0.00,,,0.00,meteohub,2013-04-25 19:22:00,
2013-04-25 14:27:00,48.2,21.7,30.20,West,270,13.0,13.0,35,0.00,,,0.00,meteohub,2013-04-25 19:27:00,
2013-04-25 14:32:00,47.8,21.6,30.20,SW,225,3.0,13.0,35,0.00,,,0.00,meteohub,2013-04-25 19:32:00,
2013-04-25 14:37:00,48.9,21.7,30.20,West,270,13.0,13.0,34,0.00,,,0.00,meteohub,2013-04-25 19:37:00,
2013-04-25 14:42:00,48.6,21.4,30.20,West,270,12.0,14.0,34,0.00,,,0.00,meteohub,2013-04-25 19:42:00,
2013-04-25 14:47:00,48.6,21.4,30.21,SW,225,6.0,14.0,34,0.00,,,0.00,meteohub,2013-04-25 19:47:00,
2013-04-25 14:52:00,48.7,20.8,30.20,West,270,14.0,14.0,33,0.00,,,0.00,meteohub,2013-04-25 19:52:00,
2013-04-25 14:57:00,47.8,20.8,30.21,SW,225,17.0,18.0,34,0.00,,,0.00,meteohub,2013-04-25 19:57:00,
2013-04-25 15:02:00,47.8,21.6,30.21,West,270,10.0,18.0,35,0.00,,,0.00,meteohub,2013-04-25 20:02:00,
2013-04-25 15:07:00,47.8,20.8,30.20,NW,315,7.0,17.0,34,0.00,,,0.00,meteohub,2013-04-25 20:07:00,
2013-04-25 15:12:00,48.7,22.3,30.21,West,270,9.0,17.0,35,0.00,,,0.00,meteohub,2013-04-25 20:12:00,
2013-04-25 15:17:00,49.1,21.2,30.20,West,270,8.0,14.0,33,0.00,,,0.00,meteohub,2013-04-25 20:17:00,
2013-04-25 15:22:00,48.4,21.4,30.21,SW,225,5.0,14.0,34,0.00,,,0.00,meteohub,2013-04-25 20:22:00,
2013-04-25 15:27:00,48.7,21.6,30.21,West,270,8.0,14.0,34,0.00,,,0.00,meteohub,2013-04-25 20:27:00,
2013-04-25 15:32:00,48.9,22.5,30.20,WNW,293,10.0,12.0,35,0.00,,,0.00,meteohub,2013-04-25 20:32:00,
2013-04-25 15:37:00,49.3,21.4,30.20,West,270,9.0,12.0,33,0.00,,,0.00,meteohub,2013-04-25 20:37:00,
2013-04-25 15:42:00,49.3,22.8,30.21,WSW,248,12.0,14.0,35,0.00,,,0.00,meteohub,2013-04-25 20:42:00,
2013-04-25 15:47:00,49.1,22.6,30.20,West,270,9.0,14.0,35,0.00,,,0.00,meteohub,2013-04-25 20:47:00,
2013-04-25 15:52:00,48.2,22.5,30.20,West,270,4.0,14.0,36,0.00,,,0.00,meteohub,2013-04-25 20:52:00,
2013-04-25 15:57:00,48.9,21.7,30.20,West,270,11.0,14.0,34,0.00,,,0.00,meteohub,2013-04-25 20:57:00,
2013-04-25 16:02:00,48.6,20.8,30.20,West,270,15.0,15.0,33,0.00,,,0.00,meteohub,2013-04-25 21:02:00,
2013-04-25 16:07:00,49.3,22.1,30.20,West,270,14.0,15.0,34,0.00,,,0.00,meteohub,2013-04-25 21:07:00,
2013-04-25 16:12:00,49.5,20.8,30.21,WNW,293,16.0,16.0,32,0.00,,,0.00,meteohub,2013-04-25 21:12:00,
2013-04-25 16:17:00,49.5,20.8,30.21,SW,225,11.0,16.0,32,0.00,,,0.00,meteohub,2013-04-25 21:17:00,
2013-04-25 16:22:00,49.6,22.5,30.21,West,270,15.0,16.0,34,0.00,,,0.00,meteohub,2013-04-25 21:22:00,
2013-04-25 16:27:00,49.6,21.0,30.21,SW,225,11.0,16.0,32,0.00,,,0.00,meteohub,2013-04-25 21:27:00,
2013-04-25 16:32:00,49.6,20.3,30.21,NW,315,17.0,17.0,31,0.00,,,0.00,meteohub,2013-04-25 21:32:00,
2013-04-25 16:37:00,49.6,21.0,30.21,West,270,11.0,17.0,32,0.00,,,0.00,meteohub,2013-04-25 21:37:00,
2013-04-25 16:42:00,49.6,20.3,30.20,SW,225,14.0,17.0,31,0.00,,,0.00,meteohub,2013-04-25 21:42:00,
2013-04-25 16:47:00,49.8,21.2,30.21,West,270,11.0,17.0,32,0.00,,,0.00,meteohub,2013-04-25 21:47:00,
2013-04-25 16:52:00,50.0,22.6,30.21,WSW,248,6.0,15.0,34,0.00,,,0.00,meteohub,2013-04-25 21:52:00,
2013-04-25 16:57:00,49.6,21.7,30.21,NW,315,12.0,15.0,33,0.00,,,0.00,meteohub,2013-04-25 21:57:00,
2013-04-25 17:02:00,49.8,21.9,30.21,West,270,13.0,14.0,33,0.00,,,0.00,meteohub,2013-04-25 22:02:00,
2013-04-25 17:07:00,50.0,20.5,30.21,West,270,14.0,15.0,31,0.00,,,0.00,meteohub,2013-04-25 22:07:00,
2013-04-25 17:12:00,50.0,20.5,30.21,West,270,8.0,15.0,31,0.00,,,0.00,meteohub,2013-04-25 22:12:00,
2013-04-25 17:17:00,49.1,19.8,30.21,West,270,12.0,15.0,31,0.00,,,0.00,meteohub,2013-04-25 22:17:00,
2013-04-25 17:22:00,49.3,20.7,30.21,West,270,8.0,14.0,32,0.00,,,0.00,meteohub,2013-04-25 22:22:00,
2013-04-25 17:27:00,49.5,19.2,30.21,West,270,15.0,15.0,30,0.00,,,0.00,meteohub,2013-04-25 22:27:00,
2013-04-25 17:32:00,49.3,20.7,30.21,WSW,248,8.0,15.0,32,0.00,,,0.00,meteohub,2013-04-25 22:32:00,
2013-04-25 17:37:00,49.3,19.9,30.21,West,270,9.0,15.0,31,0.00,,,0.00,meteohub,2013-04-25 22:37:00,
2013-04-25 17:42:00,49.5,20.1,30.21,NW,315,11.0,15.0,31,0.00,,,0.00,meteohub,2013-04-25 22:42:00,
2013-04-25 17:47:00,49.5,19.2,30.21,NW,315,12.0,14.0,30,0.00,,,0.00,meteohub,2013-04-25 22:47:00,
2013-04-25 17:52:00,49.5,20.1,30.21,SW,225,7.0,13.0,31,0.00,,,0.00,meteohub,2013-04-25 22:52:00,
2013-04-25 17:57:00,49.5,20.1,30.21,West,270,8.0,13.0,31,0.00,,,0.00,meteohub,2013-04-25 22:57:00,
2013-04-25 18:02:00,49.5,19.2,30.21,SW,225,11.0,13.0,30,0.00,,,0.00,meteohub,2013-04-25 23:02:00,
2013-04-25 18:07:00,49.5,18.5,30.21,West,270,10.0,11.0,29,0.00,,,0.00,meteohub,2013-04-25 23:07:00,
2013-04-25 18:12:00,49.1,18.1,30.21,West,270,8.0,12.0,29,0.00,,,0.00,meteohub,2013-04-25 23:12:00,
2013-04-25 18:17:00,49.1,17.4,30.21,SW,225,11.0,14.0,28,0.00,,,0.00,meteohub,2013-04-25 23:17:00,
2013-04-25 18:22:00,49.1,18.1,30.21,WSW,248,10.0,14.0,29,0.00,,,0.00,meteohub,2013-04-25 23:22:00,
2013-04-25 18:27:00,49.1,19.0,30.21,NW,315,11.0,14.0,30,0.00,,,0.00,meteohub,2013-04-25 23:27:00,
2013-04-25 18:32:00,48.9,18.9,30.20,West,270,8.0,14.0,30,0.00,,,0.00,meteohub,2013-04-25 23:32:00,
2013-04-25 18:37:00,48.9,18.0,30.21,West,270,11.0,14.0,29,0.00,,,0.00,meteohub,2013-04-25 23:37:00,
2013-04-25 18:42:00,48.9,17.2,30.21,West,270,8.0,14.0,28,0.00,,,0.00,meteohub,2013-04-25 23:42:00,
2013-04-25 18:47:00,48.7,18.7,30.20,NW,315,9.0,11.0,30,0.00,,,0.00,meteohub,2013-04-25 23:47:00,
2013-04-25 18:52:00,48.7,18.0,30.20,WSW,248,8.0,11.0,29,0.00,,,0.00,meteohub,2013-04-25 23:52:00,
2013-04-25 18:57:00,48.6,17.8,30.20,West,270,11.0,18.0,29,0.00,,,0.00,meteohub,2013-04-25 23:57:00,
2013-04-25 19:02:00,48.4,17.6,30.20,West,270,10.0,18.0,29,0.00,,,0.00,meteohub,2013-04-26 00:02:00,
2013-04-25 19:07:00,48.4,17.6,30.20,SW,225,10.0,18.0,29,0.00,,,0.00,meteohub,2013-04-26 00:07:00,
2013-04-25 19:12:00,48.2,17.4,30.20,West,270,10.0,11.0,29,0.00,,,0.00,meteohub,2013-04-26 00:12:00,
2013-04-25 19:17:00,48.0,16.5,30.20,WSW,248,10.0,11.0,28,0.00,,,0.00,meteohub,2013-04-26 00:17:00,
2013-04-25 19:22:00,47.8,17.1,30.20,West,270,8.0,11.0,29,0.00,,,0.00,meteohub,2013-04-26 00:22:00,
2013-04-25 19:27:00,47.5,17.6,30.20,NW,315,8.0,11.0,30,0.00,,,0.00,meteohub,2013-04-26 00:27:00,
2013-04-25 19:32:00,47.1,17.2,30.20,SW,225,4.0,11.0,30,0.00,,,0.00,meteohub,2013-04-26 00:32:00,
2013-04-25 19:37:00,46.9,17.8,30.20,SW,225,5.0,8.0,31,0.00,,,0.00,meteohub,2013-04-26 00:37:00,
2013-04-25 19:42:00,46.6,17.6,30.20,West,270,4.0,8.0,31,0.00,,,0.00,meteohub,2013-04-26 00:42:00,
2013-04-25 19:47:00,46.2,17.2,30.19,West,270,4.0,6.0,31,0.00,,,0.00,meteohub,2013-04-26 00:47:00,
2013-04-25 19:52:00,45.9,17.6,30.20,West,270,4.0,6.0,32,0.00,,,0.00,meteohub,2013-04-26 00:52:00,
2013-04-25 19:57:00,45.5,17.4,30.20,WSW,248,4.0,6.0,32,0.00,,,0.00,meteohub,2013-04-26 00:57:00,
2013-04-25 20:02:00,45.1,17.8,30.20,NW,315,4.0,6.0,33,0.00,,,0.00,meteohub,2013-04-26 01:02:00,
2013-04-25 20:07:00,44.6,17.2,30.20,SW,225,4.0,5.0,33,0.00,,,0.00,meteohub,2013-04-26 01:07:00,
2013-04-25 20:12:00,44.2,17.6,30.20,SW,225,3.0,4.0,34,0.00,,,0.00,meteohub,2013-04-26 01:12:00,
2013-04-25 20:17:00,44.1,17.4,30.20,SW,225,3.0,4.0,34,0.00,,,0.00,meteohub,2013-04-26 01:17:00,
2013-04-25 20:22:00,43.9,17.2,30.21,NW,315,4.0,4.0,34,0.00,,,0.00,meteohub,2013-04-26 01:22:00,
2013-04-25 20:27:00,43.9,17.2,30.21,SW,225,4.0,4.0,34,0.00,,,0.00,meteohub,2013-04-26 01:27:00,
2013-04-25 20:32:00,43.7,17.8,30.21,WSW,248,3.0,4.0,35,0.00,,,0.00,meteohub,2013-04-26 01:32:00,
2013-04-25 20:37:00,43.5,17.6,30.21,SW,225,2.0,4.0,35,0.00,,,0.00,meteohub,2013-04-26 01:37:00,
2013-04-25 20:42:00,43.5,17.6,30.21,SW,225,2.0,4.0,35,0.00,,,0.00,meteohub,2013-04-26 01:42:00,
2013-04-25 20:47:00,43.3,17.6,30.22,SW,225,2.0,4.0,35,0.00,,,0.00,meteohub,2013-04-26 01:47:00,
2013-04-25 20:52:00,43.3,17.6,30.21,West,270,3.0,4.0,35,0.00,,,0.00,meteohub,2013-04-26 01:52:00,
2013-04-25 20:57:00,43.2,17.4,30.21,SW,225,3.0,4.0,35,0.00,,,0.00,meteohub,2013-04-26 01:57:00,
2013-04-25 21:02:00,43.2,17.4,30.22,West,270,3.0,4.0,35,0.00,,,0.00,meteohub,2013-04-26 02:02:00,
2013-04-25 21:07:00,42.6,17.6,30.22,SW,225,2.0,4.0,36,0.00,,,0.00,meteohub,2013-04-26 02:07:00,
2013-04-25 21:12:00,42.3,17.2,30.22,SW,225,3.0,3.0,36,0.00,,,0.00,meteohub,2013-04-26 02:12:00,
2013-04-25 21:17:00,42.1,17.1,30.22,SW,225,2.0,3.0,36,0.00,,,0.00,meteohub,2013-04-26 02:17:00,
2013-04-25 21:22:00,42.1,17.1,30.23,SW,225,3.0,3.0,36,0.00,,,0.00,meteohub,2013-04-26 02:22:00,
2013-04-25 21:27:00,42.1,17.1,30.23,NW,315,4.0,4.0,36,0.00,,,0.00,meteohub,2013-04-26 02:27:00,
2013-04-25 21:32:00,42.1,17.1,30.23,SW,225,4.0,4.0,36,0.00,,,0.00,meteohub,2013-04-26 02:32:00,
2013-04-25 21:38:00,41.9,17.6,30.23,SW,225,4.0,4.0,37,0.00,,,0.00,meteohub,2013-04-26 02:38:00,
2013-04-25 21:43:00,41.7,17.4,30.23,SW,225,4.0,4.0,37,0.00,,,0.00,meteohub,2013-04-26 02:43:00,
2013-04-25 21:48:00,41.7,17.4,30.24,WSW,248,4.0,4.0,37,0.00,,,0.00,meteohub,2013-04-26 02:48:00,
2013-04-25 21:53:00,41.7,17.4,30.24,SW,225,5.0,5.0,37,0.00,,,0.00,meteohub,2013-04-26 02:53:00,
2013-04-25 21:58:00,41.7,18.0,30.25,West,270,4.0,5.0,38,0.00,,,0.00,meteohub,2013-04-26 02:58:00,
2013-04-25 22:03:00,41.5,17.8,30.24,NW,315,7.0,7.0,38,0.00,,,0.00,meteohub,2013-04-26 03:03:00,
2013-04-25 22:08:00,41.4,17.6,30.24,SW,225,7.0,7.0,38,0.00,,,0.00,meteohub,2013-04-26 03:08:00,
2013-04-25 22:13:00,41.4,17.1,30.25,SW,225,6.0,7.0,37,0.00,,,0.00,meteohub,2013-04-26 03:13:00,
2013-04-25 22:18:00,41.4,17.1,30.25,West,270,6.0,8.0,37,0.00,,,0.00,meteohub,2013-04-26 03:18:00,
2013-04-25 22:23:00,41.5,17.2,30.25,SW,225,7.0,8.0,37,0.00,,,0.00,meteohub,2013-04-26 03:23:00,
2013-04-25 22:28:00,41.5,16.5,30.25,SW,225,7.0,8.0,36,0.00,,,0.00,meteohub,2013-04-26 03:28:00,
2013-04-25 22:33:00,41.4,16.3,30.25,WNW,293,6.0,8.0,36,0.00,,,0.00,meteohub,2013-04-26 03:33:00,
2013-04-25 22:38:00,41.2,16.2,30.25,West,270,4.0,8.0,36,0.00,,,0.00,meteohub,2013-04-26 03:38:00,
2013-04-25 22:43:00,41.0,16.2,30.25,SW,225,6.0,7.0,36,0.00,,,0.00,meteohub,2013-04-26 03:43:00,
2013-04-25 22:48:00,40.8,16.5,30.25,SW,225,4.0,6.0,37,0.00,,,0.00,meteohub,2013-04-26 03:48:00,
2013-04-25 22:53:00,40.5,16.2,30.24,SW,225,4.0,6.0,37,0.00,,,0.00,meteohub,2013-04-26 03:53:00,
2013-04-25 22:58:00,40.3,16.2,30.25,SW,225,4.0,6.0,37,0.00,,,0.00,meteohub,2013-04-26 03:58:00,
2013-04-25 23:01:00,40.3,16.7,30.25,SW,225,4.0,5.0,38,0.00,,,0.00,meteohub,2013-04-26 04:01:00,
2013-04-25 23:02:00,40.3,16.7,30.25,SW,225,4.0,5.0,38,0.00,,,0.00,meteohub,2013-04-26 04:02:00,
2013-04-25 23:03:00,40.3,16.7,30.25,SW,225,4.0,5.0,38,0.00,,,0.00,meteohub,2013-04-26 04:03:00,
2013-04-25 23:04:00,40.3,16.7,30.25,SW,225,4.0,5.0,38,0.00,,,0.00,meteohub,2013-04-26 04:04:00,
2013-04-25 23:09:00,39.9,15.8,30.25,SW,225,4.0,4.0,37,0.00,,,0.00,meteohub,2013-04-26 04:09:00,
2013-04-25 23:14:00,39.9,16.3,30.25,West,270,4.0,4.0,38,0.00,,,0.00,meteohub,2013-04-26 04:14:00,
2013-04-25 23:19:00,39.6,16.0,30.25,West,270,5.0,5.0,38,0.00,,,0.00,meteohub,2013-04-26 04:19:00,
2013-04-25 23:24:00,39.4,15.8,30.24,North,0,4.0,6.0,38,0.00,,,0.00,meteohub,2013-04-26 04:24:00,
2013-04-25 23:29:00,39.2,16.3,30.25,SW,225,7.0,7.0,39,0.00,,,0.00,meteohub,2013-04-26 04:29:00,
2013-04-25 23:34:00,39.0,16.2,30.24,SW,225,5.0,7.0,39,0.00,,,0.00,meteohub,2013-04-26 04:34:00,
2013-04-25 23:39:00,39.0,16.2,30.24,WSW,248,7.0,7.0,39,0.00,,,0.00,meteohub,2013-04-26 04:39:00,
2013-04-25 23:45:00,39.2,15.8,30.23,SW,225,4.0,7.0,38,0.00,,,0.00,meteohub,2013-04-26 04:45:00,
2013-04-25 23:50:00,39.2,15.8,30.24,SSW,203,4.0,7.0,38,0.00,,,0.00,meteohub,2013-04-26 04:50:00,
2013-04-25 23:55:00,38.8,15.4,30.23,SW,225,2.0,7.0,38,0.00,,,0.00,meteohub,2013-04-26 04:55:00,